This is the latest recevied weather packets stored in our database for station/object N5MDT. If no packets are shown the sender has not sent any weather packets the latest 10 day(s).
| Time | Temp. | Humidity | Pressure | Rain* | Wind** | Luminosity | Snow |
|---|---|---|---|---|---|---|---|
| 1777250914 | 29.44° C | 71% | 1008.3 hPa | 0 mm | - | - | - |
| 1777250314 | 30° C | 69% | 1008.3 hPa | 0 mm | - | - | - |
| 1777249714 | 30° C | 68% | 1008.2 hPa | 0 mm | - | - | - |
| 1777249114 | 30.56° C | 68% | 1008.5 hPa | 0 mm | - | - | - |
| 1777248514 | 30.56° C | 67% | 1008.6 hPa | 0 mm | - | - | - |
| 1777247914 | 31.11° C | 66% | 1008.5 hPa | 0 mm | - | - | - |
| 1777247314 | 31.11° C | 65% | 1008.2 hPa | 0 mm | - | - | - |
| 1777246714 | 31.67° C | 65% | 1008.4 hPa | 0 mm | - | - | - |
| 1777246114 | 31.67° C | 65% | 1008.4 hPa | 0 mm | - | - | - |
| 1777245514 | 31.67° C | 65% | 1008.3 hPa | 0 mm | - | - | - |
| 1777244914 | 32.22° C | 64% | 1008.3 hPa | 0 mm | - | - | - |
| 1777244314 | 32.22° C | 65% | 1008.5 hPa | 0 mm | - | - | - |
| 1777243714 | 31.67° C | 65% | 1008.5 hPa | 0 mm | - | - | - |
| 1777243113 | 32.22° C | 64% | 1008.5 hPa | 0 mm | - | - | - |
| 1777242513 | 32.22° C | 65% | 1008.6 hPa | 0 mm | - | - | - |
| 1777241914 | 32.22° C | 65% | 1008.5 hPa | 0 mm | - | - | - |
| 1777241313 | 31.67° C | 66% | 1008.4 hPa | 0 mm | - | - | - |
| 1777240713 | 31.67° C | 66% | 1008.7 hPa | 0 mm | - | - | - |
| 1777240113 | 31.67° C | 66% | 1008.8 hPa | 0 mm | - | - | - |
| 1777239513 | 31.11° C | 68% | 1008.9 hPa | 0 mm | - | - | - |
| 1777238913 | 31.11° C | 67% | 1008.9 hPa | 0 mm | - | - | - |
| 1777238313 | 31.67° C | 67% | 1009 hPa | 0 mm | - | - | - |
| 1777237713 | 31.11° C | 68% | 1009 hPa | 0 mm | - | - | - |
| 1777237113 | 31.11° C | 69% | 1009.1 hPa | 0 mm | - | - | - |
| 1777236513 | 30.56° C | 71% | 1009.3 hPa | 0 mm | - | - | - |
* Rain latest hour (hover to see other rain measurements)
** Current wind speed in m/s (hover to see current wind gust speed)